Regional Weather Roundup
Issued by NWS

Home | Current Version | Previous Version | Graphics & Text | Print | Product List | Glossary On
Versions: 1 2 3 4 5 6 7 8 9 10 11 12 13 14 15 16 17 18 19 20 21 22 23 24 25 26 27 28 29 30 31 32 33 34 35 36 37 38 39 40 41 42 43 44 45 46 47 48 49 50
000
ASUS43 KLOT 282210
RWRIL

ILLINOIS REGIONAL WEATHER ROUNDUP
NATIONAL WEATHER SERVICE CHICAGO/ROMEOVILLE IL
400 PM CST WED JAN 28 2015

NOTE: "FAIR" INDICATES FEW OR NO CLOUDS BELOW 12,000 FEET WITH NO
SIGNIFICANT WEATHER AND/OR OBSTRUCTIONS TO VISIBILITY.

* THESE STATIONS ARE NOT UNDER NWS QUALITY CONTROL. THEY ALSO MAY NOT
  REPORT WEATHER SUCH AS PRECIPITATION OR FOG.

ILZ001-002-007-009-015-016-024-282300-
NORTHWEST ILLINOIS

CITY           SKY/WX    TMP DP  RH WIND       PRES   REMARKS
MOLINE         PTSUNNY   36  29  75 SE14      29.90F WCI  27
STERLING*      MOSUNNY   34  27  75 SE14G22   29.94F WCI  24
SAVANNA*       MOSUNNY   34  26  74 SE13      29.94F WCI  25
$$

ILZ003-004-008-010-011-017-018-282300-
NORTH CENTRAL ILLINOIS

CITY           SKY/WX    TMP DP  RH WIND       PRES   REMARKS
ROCKFORD       CLOUDY    33  24  69 SE17G26   30.00F WCI  22
FREEPORT*      MOCLDY    32  25  76 SE15      29.97F WCI  22
ROCHELLE*      MOCLDY    32  26  80 SE17      30.00F WCI  21
DE KALB*       MOCLDY    32  24  73 SE17      30.01F WCI  20
PERU*          PTSUNNY   36  29  76 SE22G31   29.99F WCI  24
$$

ILZ005-006-012>014-019>023-282300-
NORTHEAST ILLINOIS

CITY           SKY/WX    TMP DP  RH WIND       PRES   REMARKS
CHICAGO-OHARE  CLOUDY    32  21  64 SE14      30.06F WCI  22
CHICAGO-MIDWAY CLOUDY    35  22  58 SE14G22   30.08F WCI  26
AURORA         MOCLDY    34  23  64 SE20      30.03F WCI  23
LANSING*       MOCLDY    33  23  66 SE10G20   30.10F WCI  25
JOLIET*        MOCLDY    33  24  69 SE12G17   30.06F WCI  24
WAUKEGAN       CLOUDY    31  22  69 SE16G23   30.06F WCI  20
DUPAGE AIRPORT CLOUDY    33  22  63 SE15G22   30.03F WCI  23
KANKAKEE*      MOCLDY    34  26  72 SE10      30.09F WCI  26
WHEELING       CLOUDY    33  20  58 S15       30.08F WCI  23
MORRIS*        MOCLDY    34  28  78 SE20      30.04F WCI  23
ROMEOVILLE*    MOCLDY    33  24  70 SE15      30.06F WCI  22
NORTHERLY ISL    N/A     33  23  67 SE12        N/A  WCI  24
$$

LMZ740>746-282300-
SOUTHERN LAKE MICHIGAN

STATION/POSITION SKY/WX   TEMP    WIND        PRES    VSBY  WAVE
                          AIR SEA DIR/SP/G                  HT/PER
                          (F)     (DEG/KT/KT) (MB)    (MI)  (FT/S)
WAUKEGAN HARBOR            33     150/ 20/ 23   N/A
HARRISON CRIB              32     150/ 16/ 20   N/A
BURNHAM HARBOR             33     130/ 11/ 15   N/A
CALUMET HARBOR             33     150/ 11/ 15   N/A
MICHIGAN CITY              31     130/ 12/ 16   N/A
$$

ILZ025>027-034>036-040-047-049-050-058-095>099-282300-
WEST-CENTRAL ILLINOIS

CITY           SKY/WX    TMP DP  RH WIND       PRES   REMARKS
QUINCY         PTSUNNY   45  32  60 SE16G28   29.88F
GALESBURG*     PTSUNNY   38  32  77 SE13G22   29.91F WCI  31
MACOMB*        PTSUNNY   41  34  75 SE15G23   29.93F
JACKSONVILLE*  MOSUNNY   44  33  64 SE15G25   29.96F
PITTSFIELD*    PTSUNNY   45  34  65 SE17G23   29.92F
$$

ILZ028>032-037-038-041>044-048-051>054-059>061-282300-
CENTRAL ILLINOIS

CITY           SKY/WX    TMP DP  RH WIND       PRES   REMARKS
PONTIAC        PTSUNNY   36  30  79 SE22G29   30.04F WCI  24
BLOOMINGTON    MOSUNNY   38  31  76 S26       30.02F WCI  26
DECATUR        SUNNY     39  30  70 SE16      30.05F WCI  30
PEORIA         MOSUNNY   40  30  67 S14       29.98F
LACON*         MOSUNNY   37  29  73 SE15      29.98F WCI  27
LINCOLN*       SUNNY     40  32  70 S17G25    30.02F
SPRINGFIELD    SUNNY     42  31  64 SE23      30.01F
TAYLORVILLE    SUNNY     41  32  70 SE10      30.04S
$$

ILZ033-039-045-046-055>057-062-063-282300-
EAST-CENTRAL ILLINOIS

CITY           SKY/WX    TMP DP  RH WIND       PRES   REMARKS
CHAMPAIGN      MOSUNNY   37  28  70 SE18      30.08F WCI  27
DANVILLE*      PTCLDY    35  22  58 SE13G21   30.08F WCI  26
RANTOUL*       PTSUNNY   37  27  66 SE17G25   30.08F WCI  28
MATTOON        MOSUNNY   38  25  59 S17G26    30.07F WCI  28
PARIS*         MOSUNNY   36  27  67 SE16      30.12F WCI  27
$$

ILZ079-100>102-282300-
SOUTHWEST ILLINOIS

CITY           SKY/WX    TMP DP  RH WIND       PRES   REMARKS
ALTON          MOSUNNY   46  28  49 SE18G24   30.02F
BELLEVILLE     SUNNY     46  32  57 S9G18     30.04F
CAHOKIA*       SUNNY     48  32  53 SE16G26   30.02F
SPARTA*        SUNNY     45  31  59 S13G21    30.08F
$$

ILZ064>066-069>071-074>076-080>082-084>086-088>090-092>094-282300-
SOUTH-CENTRAL ILLINOIS

CITY           SKY/WX    TMP DP  RH WIND       PRES   REMARKS
CARBONDALE     MOSUNNY   46  30  53 S15G23    30.11F
CAIRO*         SUNNY     50  33  51 S9        30.14F
EFFINGHAM*     MOSUNNY   41  25  53 SE16G23   30.10F
MARION         MOSUNNY   48  32  53 S14       30.12F
MT. VERNON     SUNNY     46  30  53 SE10      30.11F
CENTRALIA*     SUNNY     45  31  57 SE16      30.08S
SALEM*         SUNNY     45  32  60 SE12G18   30.09S
METROPOLIS*    SUNNY     49  32  50 SE8       30.13F
$$

ILZ067-068-072-073-078-083-087-091-282300-
SOUTHEAST ILLINOIS

CITY           SKY/WX    TMP DP  RH WIND       PRES   REMARKS
FLORA*         SUNNY     42  30  63 SE15      30.12F
FAIRFIELD*     SUNNY     43  31  62 SE9       30.11F
HARRISBURG*    SUNNY     47  32  57 SE10      30.14F
ROBINSON*      MOSUNNY   40  25  54 SE14      30.16F
CARMI*         SUNNY     46  33  59 SE14      30.13F
$$

ABBREVIATIONS USED IN REMARKS
   TC - TEMPERATURE IN CELSIUS
  WCI - WIND CHILL INDEX
   HX - HEAT INDEX
  VSB - VISIBILITY
$$




USA.gov is the U.S. government's official web portal to all federal, state and local government web resources and services.